Weather History for KMIE - April, 2014

Change the Weather History Date:

Tuesday, April 22, 2014

  Actual Average Record
Temperature  
Mean Temperature 50 °F 54 °F  
Max Temperature 60 °F 64 °F 84 °F (1985)
Min Temperature 39 °F 43 °F 25 °F (1986)
Degree Days  
Heating Degree Days 15 12  
Month to date heating degree days 325 340  
Since 1 July heating degree days 6187 5510  
Cooling Degree Days 0 1  
Month to date cooling degree days 6 5  
Year to date cooling degree days 6 6  
Growing Degree Days 1 (Base 50)    
Moisture  
Dew Point 47 °F    
Average Humidity 67    
Maximum Humidity 93    
Minimum Humidity 41    
Precipitation  
Precipitation 0.15 in 0.13 in 1.34 in (1984)
Month to date precipitation 4.79 2.70  
Year to date precipitation 9.28 10.19  
Sea Level Pressure  
Sea Level Pressure 29.84 in    
Wind  
Wind Speed 14 mph (WNW)    
Max Wind Speed 26 mph    
Max Gust Speed 33 mph    
Visibility 6 miles    
Events Rain    
T = Trace of Precipitation, MM = Missing Value Source: NWS Daily Summary

Daily Weather History Graph

Daily Weather History Graph

Search for Another Location

Airport or City:

Trip Planner

Search our weather history database for the weather conditions in past years. The results will help you decide how hot, cold, wet, or windy it might be!

Date:

Astronomy

Apr. 22, 2014 Rise Set
Actual Time 6:53 AM EDT 8:27 PM EDT
Civil Twilight 6:24 AM EDT 8:56 PM EDT
Nautical Twilight 5:50 AM EDT 9:31 PM EDT
Astronomical Twilight 5:13 AM EDT 10:07 PM EDT
Moon 2:42 AM EDT (4/22) 1:27 PM EDT (4/22)
Length of Visible Light 14h 31m
Length of Day
13h 34m
Last Quarter, 46% of the Moon is Illuminated
Apr 22
Last Quarter
Apr 29
New
May 6
First Quarter
May 14
Full
May 21
Last Quarter

Hourly Weather History & Observations

Time (EDT) Temp. Windchill Dew Point Humidity Pressure Visibility Wind Dir Wind Speed Gust Speed Precip Events Conditions
12:28 AM 60.1 °F - 55.0 °F 83% 29.83 in 8.0 mi WSW 9.2 mph - N/A   Overcast
12:53 AM 60.1 °F - 55.0 °F 83% 29.81 in 8.0 mi WSW 10.4 mph - N/A   Mostly Cloudy
1:02 AM 60.1 °F - 55.0 °F 83% 29.83 in 8.0 mi WSW 8.1 mph - N/A   Scattered Clouds
1:53 AM 59.0 °F - 55.0 °F 87% 29.79 in 7.0 mi WSW 8.1 mph - N/A   Overcast
2:43 AM 59.0 °F - 55.0 °F 87% 29.81 in 2.5 mi West 8.1 mph - 0.03 in Rain Rain
2:53 AM 57.9 °F - 55.0 °F 90% 29.78 in 4.0 mi West 8.1 mph - 0.04 in Rain Light Rain
3:05 AM 57.9 °F - 55.0 °F 90% 29.80 in 5.0 mi West 11.5 mph - 0.00 in   Overcast
3:38 AM 57.9 °F - 55.0 °F 90% 29.79 in 1.8 mi West 11.5 mph - 0.04 in Rain Rain
3:48 AM 57.2 °F - 55.4 °F 94% 29.79 in 2.0 mi West 11.5 mph - 0.05 in Rain Light Rain
3:53 AM 57.0 °F - 55.9 °F 96% 29.76 in 2.0 mi West 9.2 mph - 0.06 in Rain Light Rain
4:40 AM 57.0 °F - 55.9 °F 96% 29.78 in 3.0 mi West 11.5 mph - 0.05 in Rain Light Rain
4:53 AM 57.9 °F - 55.9 °F 93% 29.75 in 4.0 mi West 10.4 mph - 0.05 in   Overcast
5:06 AM 57.9 °F - 55.9 °F 93% 29.78 in 4.0 mi West 11.5 mph - N/A   Overcast
5:18 AM 57.9 °F - 55.9 °F 93% 29.78 in 4.0 mi WNW 10.4 mph 19.6 mph N/A   Overcast
5:53 AM 57.9 °F - 55.9 °F 93% 29.76 in 3.0 mi West 10.4 mph - N/A   Overcast
6:18 AM 57.9 °F - 55.9 °F 93% 29.77 in 3.0 mi West 8.1 mph - N/A   Overcast
6:36 AM 57.9 °F - 55.9 °F 93% 29.78 in 4.0 mi West 9.2 mph - N/A   Overcast
6:44 AM 57.9 °F - 55.9 °F 93% 29.78 in 3.0 mi West 8.1 mph - N/A   Overcast
6:53 AM 57.0 °F - 55.9 °F 96% 29.76 in 3.0 mi WNW 9.2 mph - N/A   Overcast
7:18 AM 57.0 °F - 55.0 °F 93% 29.79 in 2.5 mi WNW 12.7 mph - N/A   Overcast
7:34 AM 57.0 °F - 55.0 °F 93% 29.80 in 2.5 mi WNW 15.0 mph 23.0 mph N/A   Overcast
7:46 AM 57.0 °F - 54.0 °F 89% 29.81 in 3.0 mi NW 15.0 mph - N/A   Overcast
7:53 AM 54.0 °F - 51.1 °F 90% 29.80 in 3.0 mi NW 19.6 mph - N/A   Overcast
8:53 AM 50.0 °F - 43.0 °F 77% 29.83 in 10.0 mi NNW 18.4 mph 25.3 mph N/A   Partly Cloudy
9:53 AM 52.0 °F - 41.0 °F 66% 29.85 in 10.0 mi NW 15.0 mph - N/A   Clear
10:53 AM 54.0 °F - 37.9 °F 55% 29.86 in 10.0 mi NW 16.1 mph - N/A   Clear
11:53 AM 55.0 °F - 39.0 °F 55% 29.87 in 10.0 mi NW 18.4 mph 25.3 mph N/A   Clear
12:53 PM 55.0 °F - 37.9 °F 53% 29.88 in 10.0 mi NW 17.3 mph 24.2 mph N/A   Clear
1:53 PM 55.9 °F - 37.0 °F 49% 29.87 in 10.0 mi NW 17.3 mph 23.0 mph N/A   Clear
2:53 PM 57.0 °F - 37.0 °F 47% 29.88 in 10.0 mi NW 19.6 mph 26.5 mph N/A   Clear
3:53 PM 57.9 °F - 35.1 °F 42% 29.87 in 10.0 mi NW 20.7 mph 26.5 mph N/A   Clear
4:53 PM 55.9 °F - 32.0 °F 40% 29.88 in 10.0 mi WNW 19.6 mph 32.2 mph N/A   Clear
5:53 PM 55.0 °F - 32.0 °F 42% 29.90 in 10.0 mi NW 19.6 mph 27.6 mph N/A   Clear
6:53 PM 53.1 °F - 30.9 °F 43% 29.92 in 10.0 mi NNW 21.9 mph 26.5 mph N/A   Clear
7:53 PM 50.0 °F - 30.0 °F 46% 29.95 in 10.0 mi North 17.3 mph 26.5 mph N/A   Clear
8:53 PM 46.9 °F - 30.0 °F 52% 29.95 in 10.0 mi North 11.5 mph - N/A   Clear
9:53 PM 43.0 °F 39.5 °F 32.0 °F 65% 29.98 in 10.0 mi North 5.8 mph - N/A   Clear
10:53 PM 42.1 °F 37.1 °F 33.1 °F 70% 29.99 in 10.0 mi North 8.1 mph - N/A   Clear
11:53 PM 39.9 °F 35.1 °F 33.1 °F 77% 29.99 in 10.0 mi NNW 6.9 mph - N/A   Clear